Regional Weather Roundup
Issued by NWS

Home | Current Version | Previous Version | Graphics & Text | Print | Product List | Glossary On
Versions: 1 2 3 4 5 6 7 8 9 10 11 12 13 14 15 16 17 18 19 20 21 22 23 24 25 26 27 28 29 30 31 32 33 34 35 36 37 38 39 40 41 42 43 44 45 46 47 48 49 50
000
ASUS45 KBOU 281507
RWRCO

WEATHER ROUNDUP FOR COLORADO
NATIONAL WEATHER SERVICE DENVER/BOULDER CO
800 AM MST SAT FEB 28 2015

NOTE: "FAIR" INDICATES FEW OR NO CLOUDS BELOW 12000 FEET WITH NO
SIGNIFICANT WEATHER AND/OR OBSTRUCTIONS TO VISIBILITY.

COZ001>005-013-030-031-281600-
...NORTHWEST COLORADO...

CITY           SKY/WX    TMP DP  RH WIND       PRES   REMARKS
CRAIG          PTSUNNY   22  10  60 NE10      29.80S WCI  11
HAYDEN         MOSUNNY   12   3  67 E13       29.80S WCI  -3
MEEKER         MOSUNNY   17   9  70 NE3       29.78F
MOUNT WERNER   NOT AVBL
STEAMBOAT SPGS MOSUNNY    6   1  80 E3        29.81S
WALDEN         MOSUNNY   -2  -8  78 SE3       29.80R
$$

COZ006>008-011-281600-
...WEST CENTRAL VALLEYS...

CITY           SKY/WX    TMP DP  RH WIND       PRES   REMARKS
GRAND JUNCTION CLOUDY    26  20  77 SE10      29.78R WCI  16
MONTROSE       CLOUDY    20  15  81 S5        29.79F WCI  13
EAGLE          MOSUNNY   18  10  73 CALM      29.87R
RIFLE          MOSUNNY   20  15  81 CALM      29.82R
DELTA          CLOUDY    25  20  84 W3        29.81R
NUCLA          CLOUDY    27  19  74 CALM      29.79R
$$

COZ017>023-064>068-281600-
...SOUTHWEST COLORADO...

CITY           SKY/WX    TMP DP  RH WIND       PRES   REMARKS
DURANGO        LGT SNOW  25  23  92 W7        29.82R VSB 1   WCI  17
CORTEZ         FLURRIES  30  29  96 CALM      29.76S
PAGOSA SPRINGS LGT SNOW  25  24  97 CALM      29.81R VSB 1
TELLURIDE      CLOUDY    24  11  59 SE3       29.74R
WOLF CREEK PAS LGT SNOW  10  10 100 SW10      29.78  WCI  -3
$$

COZ009-010-012-014-032>034-037-058>063-281600-
...CENTRAL COLORADO...

CITY           SKY/WX    TMP DP  RH WIND       PRES   REMARKS
ASPEN          MOSUNNY    7   2  80 CALM      29.77S
BUENA VISTA    MOSUNNY   13   5  73 NW7       29.83R WCI   2
COPPER MTN     MOSUNNY   12  -2  52 S8        29.72R WCI   1
BERTHOUD PASS  FAIR       3  -4  72 SW6       29.72R WCI  -8
COTTONWOOD PAS MOSUNNY   14  10  85 CALM      29.76R
GUNNISON       CLOUDY    12   3  67 NE5       29.84R WCI   4
KREMMLING      MOSUNNY   12   3  67 CALM      29.86S
LEADVILLE      MOSUNNY   -2  -7  79 N3        29.76R
SALIDA         PTSUNNY   17   9  72 W7        29.92R WCI   7
SUNLIGHT       MOSUNNY   12  10  92 CALM        N/A
WILKERSON PASS MOSUNNY   10   5  79 W6        29.76R WCI   1
$$

COZ069>075-281600-
...SAN LUIS VALLEY/SANGRE DE CRISTO MOUNTAINS...

CITY           SKY/WX    TMP DP  RH WIND       PRES   REMARKS
ALAMOSA        CLOUDY    18  14  84 SW5       29.85R WCI  11
LA VETA PASS   CLOUDY    16  12  86 MISG      29.77R FOG
SAGUACHE       CLOUDY    21  19  93 S3        29.84R
$$

COZ035-036-038>040-281600-
...NORTHERN COLORADO FRONT RANGE...

CITY           SKY/WX    TMP DP  RH WIND       PRES   REMARKS
DENVER INTL AP PTSUNNY    5   2  87 SW6       29.95R FOG     WCI  -6
DMNS CITY PARK   N/A      9   6  87 W2        29.97R
AURORA         MOSUNNY    4   1  88 SW2       29.94R FOG
FRONT RANGE AP NOT AVBL
ERIE MUNI ARPT MOSUNNY    5   3  90 S5        29.98R FOG     WCI  -4
BOULDER MUN AP MOSUNNY   10   7  85 CALM      29.96R
CENTENNIAL     PTSUNNY    7   4  87 N5        29.92R WCI  -2
BROOMFIELD     MOSUNNY    3   1  92 CALM      29.94R
FORT COLLINS   MOSUNNY    7   3  85 SE5       29.98R WCI  -2
LONGMONT       MOSUNNY   10   5  80 CALM      30.00R
$$

COZ041-046-047-076>085-087-088-281600-
...PIKES PEAK/PALMER DIVIDE AND SOUTHERN FOOTHILLS...

CITY           SKY/WX    TMP DP  RH WIND       PRES   REMARKS
COLO. SPRINGS  PTSUNNY    4   0  83 N8        29.87R WCI  -9
A. F. ACADEMY  MOSUNNY    1  -4  81 N6        29.84R WCI -11
ELLICOTT       NOT AVBL
FALCON         SUNNY     11   8  89 N8        29.84R WCI  -1
FORT CARSON    MOSUNNY    2  -1  85 N5        29.88R WCI  -7
LIMON          CLOUDY     6   4  91 S7        29.95R FOG     WCI  -6
MONUMENT HILL  MOSUNNY    9   3  78 W6        29.84R WCI  -1
TRINIDAD       PTSUNNY    8   2  76 W3        29.89R
$$

COZ042>045-048>051-090-091-281600-
...NORTHEAST COLORADO...

CITY           SKY/WX    TMP DP  RH WIND       PRES   REMARKS
GREELEY ARPT   MOSUNNY    7  -2  66 NW3       30.00R
AKRON          MOSUNNY    9   5  84 SE9       29.98R WCI  -4
BURLINGTON     CLOUDY    10   6  84 SE14      30.05R FOG     WCI  -6
WRAY           FLURRIES  13   8  81 SE13      30.10R WCI  -1
STERLING       MOSUNNY   10   5  79 CALM      30.04R
HOLYOKE        NOT AVBL
FORT MORGAN    MOSUNNY   10   4  75 E3        30.00R
$$

COZ086-089-092>099-281600-
...SOUTHEAST COLORADO...

CITY           SKY/WX    TMP DP  RH WIND       PRES   REMARKS
PUEBLO         MOSUNNY    6   1  80 N3        29.99R
LA JUNTA       MOSUNNY   10   5  80 NW6       30.01R WCI   0
LAMAR          MOSUNNY   15   9  76 S13       30.03R WCI   1
SPRINGFIELD      N/A     12  10  92 S18       29.99S WCI  -6
$$



USA.gov is the U.S. government's official web portal to all federal, state and local government web resources and services.